[[{"header":{"parameterUnit":"m.s-1","parameterCategory":1,"la1":30.2991,"la2":30.254,"lo1":-89.0895,"lo2":-89.0444,"dy":0.0017,"dx":0.0017,"nx":28,"ny":28,"refTime":"2025-08-05T21:00:00:Z","depth":0,"parameterNumber":2,"parameterNumberName":"U-component_of_WINDS"},"data":[0,0,0,0,0,0,0,0,0,0,0,0,0,0,0,0,0,0,0,0,0,0,0,0,0,0,0,0,0,0,0,0,0,0,0,0,0,0,0,0,0,0,0,0,0,0,0,0,0,0,0,0,0,0,0,0,0,0,-2.4994,-2.4994,0,-2.4939,-2.4939,-2.4938,-2.4816,-2.4813,-2.481,-2.4808,-2.4756,-2.4757,-2.4758,0,0,0,0,0,0,0,0,0,0,0,0,0,-2.4998,-2.4999,-2.4994,-2.4994,-2.4993,-2.494,-2.4939,-2.4938,-2.4816,-2.4813,-2.481,-2.4807,-2.4756,-2.4757,-2.4758,0,0,0,0,0,0,0,0,0,0,0,0,0,-2.4975,-2.4999,-2.4995,-2.4926,-2.4919,-2.494,-2.4939,-2.4938,-2.4817,-2.4813,-2.4809,-2.4805,-2.4756,-2.4757,-2.4758,-2.4843,0,0,-2.4763,-2.4764,0,0,0,0,0,0,0,0,-2.4977,-2.4975,-2.4936,-2.493,-2.4923,-2.488,-2.4921,-2.4906,-2.4818,-2.4856,-2.4808,-2.4804,-2.4801,-2.4798,-2.4797,-2.4841,-2.4839,-2.4763,-2.4764,-2.4765,-2.4765,0,0,0,0,0,0,0,-2.4979,-2.4977,-2.4973,-2.4936,-2.4928,-2.4899,-2.4891,-2.4918,-2.485,-2.4852,-2.4843,-2.4838,-2.4797,-2.4796,-2.4794,-2.4838,-2.4763,-2.4764,-2.4765,-2.4766,-2.495,-2.4954,0,0,0,0,0,0,-2.499,-2.4979,-2.4974,-2.4971,-2.4941,-2.4902,-2.4894,-2.4898,-2.485,-2.4839,-2.4841,-2.4832,-2.4795,-2.4793,-2.4792,-2.4889,-2.4765,-2.4766,-2.4767,-2.4946,-2.4951,-2.4955,0,0,0,0,0,0,-2.499,-2.499,-2.4977,-2.4973,-2.4969,-2.4906,-2.4912,-2.4899,-2.4897,-2.4841,-2.4829,-2.4852,-2.4792,-2.479,-2.4831,-2.4885,-2.4767,-2.4768,-2.4942,-2.4948,-2.4953,-2.5083,0,0,0,0,0,0,-2.4991,-2.4991,-2.5022,-2.4974,-2.4969,-2.5016,-2.4915,-2.4901,-2.49,-2.4888,-2.4849,-2.4838,-2.4789,-2.483,-2.4833,-2.4885,-2.4769,-2.4936,-2.4944,-2.4951,-2.5074,-2.5093,-2.5109,0,0,0,0,0,-2.4991,-2.5061,-2.5024,-2.5024,-2.5006,-2.5019,-2.5017,-2.4957,-2.4905,-2.4936,-2.49,-2.484,-2.4879,-2.4835,-2.4838,-2.4891,-2.4933,-2.4942,-2.4951,-2.5066,-2.5089,-2.5109,0,0,0,0,0,0,-2.5118,-2.5054,-2.5012,-2.5068,-2.505,-2.4998,-2.5035,-2.4983,-2.4981,-2.497,-2.4897,-2.4889,-2.4941,-2.492,-2.4872,-2.4971,-2.4896,-2.4906,-2.4983,-2.5004,-2.5022,-2.5026,-2.477,0,0,0,0,0,-2.5152,-2.5167,-2.511,-2.5166,-2.5159,-2.5099,-2.5103,-2.5058,-2.5037,-2.5029,-2.4996,-2.4979,-2.4988,-2.4995,-2.4999,-2.507,-2.506,-2.5108,-2.5126,-2.5141,-2.515,-2.5187,-2.5208,-2.4985,-2.4985,-2.4985,0,0,-2.5224,-2.519,-2.5204,-2.519,-2.5171,-2.5189,-2.5093,-2.5117,-2.513,-2.5033,-2.5069,-2.5045,-2.5022,-2.5078,-2.5102,-2.5063,-2.521,-2.5152,-2.5164,-2.5166,-2.5199,-2.522,-2.5239,-2.4991,-2.499,-2.4989,0,0,-2.5363,-2.5339,-2.5382,-2.5365,-2.5337,-2.5296,-2.5307,-2.5264,-2.5244,-2.5279,-2.5207,-2.5222,-2.5238,-2.5224,-2.522,-2.5355,-2.53,-2.5359,-2.5452,-2.5488,-2.5506,-2.5521,-2.557,-2.5589,-2.5369,-2.5369,-2.5369,0,-2.5456,-2.5479,-2.5412,-2.544,-2.5436,-2.5348,-2.5393,-2.5379,-2.5355,-2.5356,-2.5312,-2.533,-2.5308,-2.5361,-2.5394,-2.5393,-2.5404,-2.5363,-2.5508,-2.5523,-2.5536,-2.5582,-2.5601,-2.5376,-2.5375,-2.5375,-2.5374,0,-2.5595,-2.5612,-2.5651,-2.5628,-2.5629,-2.5666,-2.5606,-2.5615,-2.5571,-2.5536,-2.5574,-2.5544,-2.5542,-2.5551,-2.5508,-2.5598,-2.5575,-2.5521,-2.5444,-2.5566,-2.5608,-2.5625,-2.5387,-2.5384,-2.5382,-2.538,0,0,-2.5812,-2.5752,-2.5767,-2.5756,-2.5719,-2.5732,-2.5765,-2.5761,-2.5771,-2.5757,-2.5784,-2.58,-2.575,-2.5745,-2.57,-2.5732,-2.5842,-2.5674,-2.5672,-2.5707,-2.5941,-2.5982,-2.6003,-2.5806,-2.5809,-2.5811,-2.5943,0,-2.5943,-2.5994,-2.5935,-2.6,-2.6016,-2.5933,-2.5962,-2.5943,-2.5912,-2.5922,-2.5888,-2.59,-2.5833,-2.5829,-2.5857,-2.5823,-2.5888,-2.5813,-2.5831,-2.5833,-2.584,-2.6025,-2.6068,-2.6194,-2.5959,-2.5961,-2.5963,0,-2.6102,-2.6095,-2.6161,-2.612,-2.6124,-2.6151,-2.6143,-2.6154,-2.6132,-2.6106,-2.6101,-2.6047,-2.6078,-2.6004,-2.6046,-2.5996,-2.6,-2.5985,-2.5988,-2.5988,-2.5906,-2.6031,-2.6232,-2.6252,-2.5989,-2.5987,-2.5985,0,-2.6256,-2.6262,-2.6302,-2.6295,-2.6248,-2.6269,-2.6251,-2.6225,-2.6227,-2.622,-2.6221,-2.622,-2.6219,-2.622,-2.6167,-2.6117,-2.6217,-2.6138,-2.6198,-2.62,-2.6223,-2.6223,-2.643,-2.6226,-2.6226,-2.6225,-2.6225,0,-2.6408,-2.6452,-2.637,-2.6395,-2.6443,-2.6375,-2.6424,-2.6398,-2.6375,-2.6395,-2.6323,-2.6343,-2.6272,-2.6286,-2.6245,-2.6287,-2.6287,-2.6269,-2.6258,-2.6276,-2.6278,-2.6278,-2.6268,-2.623,-2.6229,-2.6228,-2.6227,0,-2.6587,-2.6534,-2.6572,-2.6525,-2.6514,-2.6551,-2.651,-2.6532,-2.6496,-2.6522,-2.6524,-2.6469,-2.6481,-2.6428,-2.6431,-2.6404,-2.6468,-2.6441,-2.6475,-2.6467,-2.6531,-2.6526,-2.6745,-2.6771,-2.6551,-2.6553,-2.6555,0,-2.6688,-2.6719,-2.6675,-2.6682,-2.6667,-2.668,-2.6681,-2.6616,-2.6621,-2.6598,-2.6624,-2.6629,-2.663,-2.6654,-2.6615,-2.6617,-2.6591,-2.6668,-2.6591,-2.6608,-2.6593,-2.6592,-2.6595,-2.6684,-2.6687,-2.6689,-2.6691,0,-2.6873,-2.6845,-2.6849,-2.6844,-2.6847,-2.6841,-2.6829,-2.684,-2.677,-2.678,-2.679,-2.6791,-2.6794,-2.6801,-2.6795,-2.6778,-2.6724,-2.6715,-2.6729,-2.6748,-2.6766,-2.6758,-2.6519,-2.671,-2.6708,-2.6707,-2.6706,-2.6705,-2.7016,-2.7041,-2.7013,-2.702,-2.7004,-2.6996,-2.7014,-2.698,-2.6987,-2.6984,-2.6946,-2.6964,-2.6942,-2.6929,-2.6917,-2.6931,-2.6895,-2.6916,-2.6921,-2.6928,-2.6939,-2.6764,-2.693,-2.6929,-2.6929,-2.6928,-2.6928,0,-2.7198,-2.7177,-2.7183,-2.7169,-2.7175,-2.7122,-2.7107,-2.7116,-2.7132,-2.7116,-2.7118,-2.7131,-2.7138,-2.7099,-2.7101,-2.7121,-2.7096,-2.7123,-2.7122,-2.7119,-2.6971,-2.6958,-2.7143,-2.7143,-2.7143,-2.7143,-2.7143,-2.7143,-2.7294,-2.7332,-2.7302,-2.7333,-2.7311,-2.7327,-2.7323,-2.7315,-2.7302,-2.7319,-2.7324,-2.7298,-2.7273,-2.7273,-2.7277,-2.7266,-2.727,-2.7307,-2.7287,-2.715,-2.7129,-2.7109,-2.7097,-2.7308,-2.7308,-2.7434,-2.7435,-2.7436]},{"header":{"parameterUnit":"m.s-1","parameterCategory":1,"la1":30.2991,"la2":30.254,"lo1":-89.0895,"lo2":-89.0444,"dy":0.0017,"dx":0.0017,"nx":28,"ny":28,"refTime":"2025-08-05T21:00:00:Z","depth":0,"parameterNumber":3,"parameterNumberName":"V-component_of_WINDS"},"data":[0,0,0,0,0,0,0,0,0,0,0,0,0,0,0,0,0,0,0,0,0,0,0,0,0,0,0,0,0,0,0,0,0,0,0,0,0,0,0,0,0,0,0,0,0,0,0,0,0,0,0,0,0,0,0,0,0,0,1.4433,1.4433,0,1.4439,1.4439,1.444,1.4505,1.4507,1.4509,1.451,1.451,1.4509,1.4507,0,0,0,0,0,0,0,0,0,0,0,0,0,1.4474,1.4473,1.4433,1.4433,1.4434,1.4439,1.444,1.444,1.4505,1.4507,1.4509,1.4511,1.4511,1.4509,1.4507,0,0,0,0,0,0,0,0,0,0,0,0,0,1.4465,1.4472,1.4433,1.4467,1.447,1.4439,1.444,1.444,1.4505,1.4507,1.451,1.4512,1.4511,1.4509,1.4507,1.4442,0,0,1.45,1.4499,0,0,0,0,0,0,0,0,1.4466,1.4464,1.4462,1.4465,1.4468,1.4474,1.4454,1.444,1.4504,1.4491,1.451,1.4513,1.4496,1.4495,1.449,1.4442,1.4442,1.4499,1.4498,1.4497,1.4496,0,0,0,0,0,0,0,1.4466,1.4464,1.4436,1.4462,1.4466,1.448,1.4482,1.4451,1.4479,1.4493,1.4498,1.4498,1.4498,1.4492,1.4491,1.4442,1.4499,1.4497,1.4496,1.4495,1.4341,1.4338,0,0,0,0,0,0,1.4463,1.4464,1.4435,1.4436,1.4473,1.4478,1.4479,1.447,1.448,1.4484,1.4496,1.4501,1.4495,1.4494,1.4491,1.4415,1.4497,1.4495,1.4493,1.4343,1.434,1.4337,0,0,0,0,0,0,1.4464,1.446,1.4435,1.4451,1.4449,1.4474,1.4463,1.4469,1.4463,1.4482,1.4487,1.4485,1.4497,1.4494,1.4454,1.4416,1.4494,1.4492,1.4347,1.4342,1.4339,1.4264,0,0,0,0,0,0,1.4464,1.446,1.4436,1.445,1.4448,1.4399,1.4461,1.4467,1.446,1.4467,1.4474,1.4477,1.4499,1.4457,1.4452,1.4415,1.449,1.435,1.4345,1.434,1.427,1.4258,1.4247,0,0,0,0,0,1.4466,1.4414,1.4435,1.4431,1.442,1.4397,1.4396,1.4424,1.4456,1.4432,1.4445,1.4477,1.4422,1.4453,1.4447,1.4408,1.4353,1.4346,1.434,1.4275,1.426,1.4248,0,0,0,0,0,0,1.4392,1.4416,1.444,1.4391,1.4392,1.4408,1.4379,1.4407,1.4397,1.4404,1.4437,1.4438,1.4392,1.4397,1.4431,1.4346,1.4393,1.4385,1.4345,1.4331,1.432,1.4319,1.4488,0,0,0,0,0,1.4371,1.4352,1.4373,1.4328,1.4328,1.4353,1.4344,1.4366,1.4367,1.4367,1.4377,1.4375,1.4357,1.4345,1.433,1.4272,1.4273,1.4242,1.4231,1.4222,1.4214,1.4183,1.4169,1.4317,1.4317,1.4318,0,0,1.4325,1.4336,1.4322,1.4314,1.4317,1.4295,1.4353,1.4327,1.4311,1.4363,1.4326,1.4332,1.4333,1.4283,1.4262,1.4285,1.4174,1.4214,1.4207,1.4204,1.4175,1.4161,1.4149,1.4313,1.4314,1.4315,0,0,1.4231,1.4238,1.4201,1.4204,1.4209,1.4226,1.4217,1.423,1.4237,1.4201,1.424,1.422,1.4189,1.4188,1.4183,1.409,1.4119,1.4084,1.4025,1.3994,1.3982,1.3972,1.3937,1.3925,1.4077,1.4077,1.4077,0,1.4173,1.4143,1.4178,1.415,1.4145,1.4194,1.4156,1.4156,1.4155,1.4149,1.4177,1.414,1.4143,1.4094,1.4071,1.4066,1.4056,1.4082,1.3982,1.3972,1.3963,1.393,1.3917,1.4073,1.4073,1.4073,1.4074,0,1.4071,1.405,1.4019,1.4019,1.4011,1.3978,1.4006,1.3993,1.4016,1.403,1.3993,1.3999,1.3986,1.3977,1.3998,1.393,1.3944,1.3976,1.4023,1.3944,1.3913,1.3901,1.4066,1.4068,1.4069,1.407,0,0,1.3928,1.3949,1.3937,1.3938,1.3948,1.3931,1.39,1.389,1.3877,1.3875,1.3849,1.3823,1.3853,1.3847,1.3869,1.3843,1.3767,1.3878,1.3878,1.3855,1.3691,1.3665,1.365,1.3787,1.3785,1.3783,1.369,0,1.3836,1.3786,1.3817,1.3761,1.3741,1.3788,1.3761,1.3763,1.3776,1.376,1.3774,1.3754,1.3796,1.3793,1.3769,1.3781,1.3734,1.3789,1.3761,1.3759,1.3757,1.3635,1.3608,1.3519,1.3679,1.3677,1.3675,0,1.3721,1.3716,1.3659,1.3674,1.3666,1.3642,1.3635,1.362,1.3623,1.3634,1.3629,1.3658,1.3627,1.3675,1.3632,1.3669,1.366,1.3664,1.3661,1.3658,1.3711,1.3626,1.3492,1.3478,1.3657,1.3659,1.366,0,1.362,1.36,1.3563,1.3562,1.3578,1.356,1.3565,1.3571,1.3563,1.3557,1.3552,1.3541,1.3535,1.3525,1.355,1.3583,1.3503,1.3553,1.3509,1.3508,1.3488,1.3488,1.3348,1.3485,1.3485,1.3486,1.3486,0,1.3513,1.3475,1.3518,1.3495,1.3454,1.349,1.3448,1.3459,1.3464,1.3443,1.3483,1.3462,1.3497,1.3479,1.3498,1.3458,1.3456,1.3462,1.3467,1.3457,1.3456,1.345,1.3456,1.3482,1.3483,1.3484,1.3484,0,1.3392,1.3419,1.3382,1.3402,1.3406,1.3375,1.339,1.3369,1.3386,1.3358,1.3354,1.3379,1.336,1.3385,1.3367,1.338,1.3326,1.3341,1.3325,1.3329,1.3283,1.3286,1.3132,1.3113,1.3264,1.3262,1.3261,0,1.3321,1.3293,1.3311,1.3301,1.3304,1.3287,1.328,1.3314,1.3305,1.3307,1.3285,1.327,1.3259,1.3226,1.3242,1.3229,1.3243,1.319,1.3241,1.3232,1.324,1.324,1.3237,1.3178,1.3177,1.3175,1.3174,0,1.319,1.3206,1.3195,1.3188,1.3179,1.3175,1.3174,1.3163,1.3199,1.3186,1.3168,1.316,1.3144,1.3128,1.3119,1.3123,1.3153,1.3158,1.3147,1.3136,1.3127,1.3129,1.3295,1.3161,1.3162,1.3163,1.3164,1.3164,1.3091,1.3069,1.3078,1.3064,1.3068,1.3066,1.3048,1.3063,1.3049,1.304,1.3061,1.3038,1.3042,1.3034,1.3035,1.3016,1.3039,1.3022,1.3018,1.3013,1.3005,1.3132,1.3015,1.3015,1.3015,1.3016,1.3016,0,1.2961,1.297,1.2958,1.2956,1.2945,1.2979,1.2979,1.2967,1.2947,1.2949,1.2939,1.2918,1.2903,1.2919,1.2906,1.2888,1.2901,1.2883,1.2884,1.2884,1.2987,1.2997,1.2872,1.2872,1.2872,1.2873,1.2873,1.2873,1.2893,1.2857,1.2874,1.284,1.2849,1.2828,1.2825,1.2824,1.2826,1.2802,1.279,1.2802,1.2809,1.2798,1.2785,1.279,1.2782,1.2758,1.2768,1.2863,1.2877,1.289,1.29,1.2757,1.2757,1.2666,1.2666,1.2665]}]]